Tracking 18942 objects as of 17-Jan-2018
HD Live streaming from Space Station
objects crossing your sky now

TEAMSAT

Track TEAMSAT now!
10-day predictions
TEAMSAT is classified as:


NORAD ID: 25025
Int'l Code: 1997-066C
Perigee: 579.5 km
Apogee: 26,590.7 km
Inclination: 7.8 °
Period: 467.6 minutes
Semi major axis: 19956 km
RCS: 0.5073 m2 (medium)
Launch date: October 30, 1997
Source: European Space Agency (ESA)
Launch site: FRENCH GUIANA (FRGUI)
aabbcc
Your satellite tracking list
Your tracking list is empty




NASA's NSSDC Master Catalog

Two Line Element Set (TLE):
1 25025U 97066C   18016.52473271 -.00000004  00000-0  42461-4 0  9995
2 25025   7.7656 283.3584 6517110 320.5476 270.8003  3.07956851227508
Source of the keplerian elements: AFSPC